Starlink 30320

operational
NORAD ID: 57678 Int'l Des: 2023-124 Owner: SPXS Country: US Constellation: starlink
LEOCIRCULAR

Über Starlink 30320

Beschreibung wird geladen...

Live-Position

3D-Globus wird geladen...

Nächste Überflüge

Höhenverlauf

Altitude vs Time

uPlot chart will show altitude changes over time

Zweizeiliger Elementsatz

1 57678U 23124R 26035.15306602 -.00000699 00000-0 -11484-4 0 9992
2 57678 53.1626 349.8247 0001344 106.1083 254.0066 15.30194462138613
Epoch: 4. Feb. 2026 • Age: 26 hours

Aktueller Status

Höhe 489.4 km
Geschwindigkeit 7.62 km/s
Subsatellitenpunkt -40.27°S, 78.84°E
Startdatum 22. Aug. 2023
Alter 2.4 years
Typ internet

Technische Details

Klassifizierung Payload
Masse 730.00 kg
Trockenmasse 700.00 kg
Gesamtmasse 730.00 kg
Länge 0.30 m
Durchmesser 4.10 m
Spannweite 29.00 m
Form Box + pan
Hersteller SPXS
Bus-Typ Starlink V2M
Phasenstatus In Orbit
Besitzer/Staat SPXS/US

Große Konstellationen

Loading constellations...